K9JWM Weather Reports


Display with metric or nautical units.
time (UTC)temp
F
wind
direction
speed
MPH
gust
MPH
rain 1hr
in
rain 24hr
in
rain mn
in
humidity
%
barometer
mb
20260510035004 43 268 2.0 3.0 0.00 0.00 0.00 60 1013.1
20260510034710 43 267 1.0 3.0 0.00 0.00 0.00 59 1013.0
20260510034005 43 285 1.0 6.0 0.00 0.00 0.00 55 1012.9
20260510033209 43 272 2.0 3.0 0.00 0.00 0.00 55 1012.9
20260510033004 43 279 1.0 3.0 0.00 0.00 0.00 55 1012.9
20260510032005 44 310 1.0 3.0 0.00 0.00 0.00 53 1012.9
20260510031711 44 271 0.0 3.0 0.00 0.00 0.00 56 1012.9
20260510030211 44 279 1.0 3.0 0.00 0.00 0.00 50 1012.7
20260510030005 44 274 1.0 3.0 0.00 0.00 0.00 50 1012.7
20260510025005 45 328 1.0 3.0 0.00 0.00 0.00 51 1012.6
20260510024710 45 328 0.0 2.0 0.00 0.00 0.00 50 1012.6
20260510024005 45 307 1.0 7.0 0.00 0.00 0.00 53 1012.5
20260510023209 45 336 3.0 7.0 0.00 0.00 0.00 52 1012.3
20260510022005 45 288 0.0 7.0 0.00 0.00 0.00 52 1012.2
20260510021709 45 301 1.0 3.0 0.00 0.00 0.00 50 1012.2
20260510021005 45 328 1.0 5.0 0.00 0.00 0.00 49 1012.1
20260510020210 45 306 2.0 5.0 0.00 0.00 0.00 50 1011.9
20260510020005 45 38 2.0 6.0 0.00 0.00 0.00 51 1011.9
20260510015004 46 49 0.0 3.0 0.00 0.00 0.00 48 1011.8
20260510014710 46 57 1.0 1.0 0.00 0.00 0.00 48 1011.8
20260510014005 46 296 1.0 6.0 0.00 0.00 0.00 48 1011.6
20260510013209 47 16 2.0 3.0 0.00 0.00 0.00 46 1011.3
20260510013004 47 20 1.0 7.0 0.00 0.00 0.00 46 1011.3
20260510012004 47 28 2.0 8.0 0.00 0.00 0.00 45 1011.0
20260510011710 47 27 2.0 3.0 0.00 0.00 0.00 49 1011.0
20260510011005 48 39 2.0 10.0 0.00 0.00 0.00 45 1010.8
20260510010209 48 354 3.0 8.0 0.00 0.00 0.00 45 1010.6
20260510010005 48 11 2.0 13.0 0.00 0.00 0.00 45 1010.7
20260510005005 49 325 4.0 13.0 0.00 0.00 0.00 42 1010.3
20260510004709 49 9 1.0 3.0 0.00 0.00 0.00 43 1010.3
20260510004004 49 351 3.0 12.0 0.00 0.00 0.00 41 1010.1
20260510003210 50 300 3.0 5.0 0.00 0.00 0.00 41 1009.9
20260510002004 50 45 4.0 9.0 0.00 0.00 0.00 40 1009.7
20260510001709 50 26 5.0 7.0 0.00 0.00 0.00 41 1009.5
20260510001004 50 350 6.0 12.0 0.00 0.00 0.00 40 1009.4
20260510000211 50 355 0.0 1.0 0.00 0.00 0.00 41 1009.3
20260509234710 50 30 1.0 1.0 0.00 0.00 0.00 42 1009.2
20260509234005 50 330 2.0 10.0 0.00 0.00 0.00 42 1009.2
20260509233209 50 39 1.0 5.0 0.00 0.00 0.00 42 1009.1
20260509233004 50 336 2.0 12.0 0.00 0.00 0.00 41 1009.1
20260509232005 50 293 1.0 6.0 0.00 0.00 0.00 41 1009.1
20260509231710 50 32 2.0 2.0 0.00 0.00 0.00 42 1009.0
20260509231004 50 46 2.0 8.0 0.00 0.00 0.00 42 1008.9
20260509230210 50 326 1.0 3.0 0.00 0.00 0.00 41 1008.8
20260509230005 50 327 4.0 15.0 0.00 0.00 0.00 40 1008.8
20260509225005 50 248 3.0 10.0 0.00 0.00 0.00 41 1008.8
20260509224710 50 311 2.0 7.0 0.00 0.00 0.00 40 1008.8
20260509224004 50 321 5.0 12.0 0.00 0.00 0.00 40 1008.8
20260509223209 50 347 3.0 8.0 0.00 0.00 0.00 40 1008.7
20260509222004 51 280 5.0 14.0 0.00 0.00 0.00 41 1008.4
20260509221710 51 301 7.0 12.0 0.00 0.00 0.00 39 1008.4
20260509221004 51 13 3.0 17.0 0.00 0.00 0.00 41 1008.4
20260509220209 50 46 1.0 2.0 0.00 0.00 0.00 42 1008.5
20260509220004 50 1 3.0 10.0 0.00 0.00 0.00 39 1008.4
20260509215004 50 309 6.0 12.0 0.00 0.00 0.00 38 1008.3
20260509214710 50 106 3.0 5.0 0.00 0.00 0.00 37 1008.3
20260509214005 50 312 8.0 16.0 0.00 0.00 0.00 39 1008.3
20260509213209 50 290 5.0 8.0 0.00 0.00 0.00 40 1008.4
20260509213004 49 258 5.0 14.0 0.00 0.00 0.00 40 1008.3
20260509212005 50 5 5.0 16.0 0.00 0.00 0.00 44 1008.3
20260509211709 49 319 6.0 7.0 0.00 0.00 0.00 41 1008.2
20260509211004 51 305 5.0 12.0 0.00 0.00 0.00 38 1008.0
20260509210209 51 291 3.0 7.0 0.00 0.00 0.00 39 1008.0
20260509210004 50 316 3.0 21.0 0.00 0.00 0.00 40 1008.0
20260509205005 50 338 4.0 21.0 0.00 0.00 0.00 41 1008.0
20260509204710 50 254 3.0 7.0 0.00 0.00 0.00 43 1007.8
20260509204004 50 303 6.0 16.0 0.00 0.00 0.00 40 1007.9
20260509203210 52 264 6.0 8.0 0.00 0.00 0.00 40 1007.6
20260509203004 51 18 5.0 20.0 0.00 0.00 0.00 39 1007.5
20260509202004 51 12 3.0 17.0 0.00 0.00 0.00 42 1007.5
20260509201709 51 257 3.0 8.0 0.00 0.00 0.00 41 1007.5
20260509201004 51 339 6.0 15.0 0.00 0.00 0.00 41 1007.5
20260509200210 51 13 6.0 15.0 0.00 0.00 0.00 41 1007.4
20260509200005 51 348 6.0 16.0 0.00 0.00 0.00 42 1007.4
20260509195004 50 336 4.0 20.0 0.00 0.00 0.00 41 1007.2
20260509194709 50 285 6.0 17.0 0.00 0.00 0.00 42 1007.2
20260509194004 50 269 6.0 20.0 0.00 0.00 0.00 39 1007.0
20260509193209 50 324 8.0 20.0 0.00 0.00 0.00 43 1007.0
20260509193004 50 275 6.0 20.0 0.00 0.00 0.00 44 1006.9
20260509192004 50 0 3.0 13.0 0.00 0.00 0.00 42 1006.9
20260509191710 50 257 2.0 3.0 0.00 0.00 0.00 42 1006.8
20260509191005 50 264 5.0 15.0 0.00 0.00 0.00 43 1006.5
20260509190209 50 280 7.0 13.0 0.00 0.00 0.00 42 1006.5
20260509190005 50 272 6.0 20.0 0.00 0.00 0.00 41 1006.4
20260509185004 49 278 9.0 23.0 0.00 0.00 0.00 43 1006.3
20260509184710 49 268 7.0 9.0 0.00 0.00 0.00 44 1006.3
20260509184004 49 260 6.0 16.0 0.00 0.00 0.00 44 1006.2
20260509183209 50 305 9.0 14.0 0.00 0.00 0.00 42 1006.1
20260509182004 49 7 5.0 15.0 0.00 0.00 0.00 44 1005.8
20260509181709 49 303 5.0 8.0 0.00 0.00 0.00 46 1005.9
20260509181004 49 310 6.0 18.0 0.00 0.00 0.00 43 1005.8
20260509180209 51 271 8.0 14.0 0.00 0.00 0.00 46 1005.6
20260509180005 51 164 5.0 20.0 0.00 0.00 0.00 45 1005.5
20260509175004 51 263 7.0 18.0 0.00 0.00 0.00 42 1005.5
20260509174710 51 327 7.0 12.0 0.00 0.00 0.00 40 1005.3
20260509173209 51 341 3.0 6.0 0.00 0.00 0.00 43 1005.1
20260509173004 50 3 6.0 21.0 0.00 0.00 0.00 41 1005.2
20260509172005 50 281 3.0 12.0 0.00 0.00 0.00 43 1005.1
20260509171710 50 262 3.0 9.0 0.00 0.00 0.00 41 1005.0
20260509171004 50 218 4.0 16.0 0.00 0.00 0.00 41 1005.0
20260509170209 50 275 9.0 14.0 0.00 0.00 0.00 41 1004.8
20260509170004 50 279 6.0 22.0 0.00 0.00 0.00 44 1004.8
20260509165004 51 17 5.0 15.0 0.00 0.00 0.00 39 1004.8
20260509164710 51 243 5.0 3.0 0.00 0.00 0.00 40 1004.6
20260509164004 51 326 5.0 18.0 0.00 0.00 0.00 39 1004.6
20260509163208 50 357 7.0 10.0 0.00 0.00 0.00 39 1004.6
20260509163004 50 309 6.0 18.0 0.00 0.00 0.00 41 1004.5
20260509162004 50 352 7.0 20.0 0.00 0.00 0.00 39 1004.4
20260509161709 50 339 7.0 18.0 0.00 0.00 0.00 38 1004.3
20260509160209 49 348 8.0 17.0 0.00 0.00 0.00 40 1004.2
20260509160005 49 321 4.0 18.0 0.00 0.00 0.00 40 1004.2
20260509155004 49 299 7.0 20.0 0.00 0.00 0.00 42 1004.0
20260509154710 49 266 8.0 13.0 0.00 0.00 0.00 41 1003.8
20260509154004 49 266 11.0 23.0 0.00 0.00 0.00 40 1003.7
20260509153209 49 289 9.0 17.0 0.00 0.00 0.00 38 1003.5
20260509153004 49 309 11.0 26.0 0.00 0.00 0.00 39 1003.7
20260509152004 49 318 7.0 17.0 0.00 0.00 0.00 41 1003.5
20260509151710 49 268 8.0 12.0 0.00 0.00 0.00 40 1003.4
20260509151004 49 350 9.0 20.0 0.00 0.00 0.00 40 1003.3
20260509150208 48 11 6.0 6.0 0.00 0.00 0.00 40 1003.2
20260509145005 48 348 4.0 16.0 0.00 0.00 0.00 41 1003.1
20260509144710 48 320 10.0 13.0 0.00 0.00 0.00 42 1003.3
20260509144004 47 304 3.0 17.0 0.00 0.00 0.00 42 1003.0
20260509143210 47 261 8.0 9.0 0.00 0.00 0.00 41 1002.9
20260509143004 47 288 9.0 16.0 0.00 0.00 0.00 42 1002.8
20260509141709 47 306 2.0 10.0 0.00 0.00 0.00 43 1002.7
20260509140208 46 275 6.0 12.0 0.00 0.00 0.00 41 1002.6
20260509140005 46 340 7.0 16.0 0.00 0.00 0.00 43 1002.5
20260509135004 46 348 8.0 15.0 0.00 0.00 0.00 43 1002.6
20260509134709 46 10 3.0 8.0 0.00 0.00 0.00 46 1002.5
20260509134004 46 299 4.0 16.0 0.00 0.00 0.00 44 1002.5
20260509133208 46 312 6.0 12.0 0.00 0.00 0.00 45 1002.4
20260509133004 46 293 6.0 12.0 0.00 0.00 0.00 46 1002.4
20260509132004 46 348 3.0 8.0 0.00 0.00 0.00 46 1002.2
20260509131710 46 248 0.0 2.0 0.00 0.00 0.00 46 1002.1
20260509131004 46 294 2.0 9.0 0.00 0.00 0.00 45 1002.0
20260509130209 46 288 2.0 6.0 0.00 0.00 0.00 44 1002.0
20260509130004 46 311 2.0 15.0 0.00 0.00 0.00 46 1002.0
20260509125004 46 335 2.0 8.0 0.00 0.00 0.00 46 1001.9
20260509124709 46 310 2.0 6.0 0.00 0.00 0.00 46 1001.9
20260509124004 46 296 1.0 9.0 0.00 0.00 0.00 46 1001.8
20260509123210 46 342 5.0 5.0 0.00 0.00 0.00 45 1001.7
20260509123004 46 289 2.0 7.0 0.00 0.00 0.00 47 1001.7
20260509122005 46 289 3.0 7.0 0.00 0.00 0.00 46 1001.7
20260509121709 46 281 3.0 3.0 0.00 0.00 0.00 47 1001.7
20260509121004 46 278 5.0 12.0 0.00 0.00 0.00 46 1001.8
20260509120210 46 300 2.0 8.0 0.00 0.00 0.00 45 1001.6
20260509120004 46 291 3.0 7.0 0.00 0.00 0.00 45 1001.6
20260509115004 47 284 4.0 8.0 0.00 0.00 0.00 45 1001.4
20260509114708 47 305 1.0 5.0 0.00 0.00 0.00 46 1001.3
20260509114004 47 300 2.0 9.0 0.00 0.00 0.00 48 1001.3
20260509113209 47 292 2.0 3.0 0.00 0.00 0.00 49 1001.1
20260509113004 47 287 2.0 9.0 0.00 0.00 0.00 49 1001.2
20260509112004 47 294 2.0 6.0 0.00 0.00 0.00 47 1000.9
20260509111709 47 265 2.0 3.0 0.00 0.00 0.00 48 1000.9
20260509111004 48 254 3.0 12.0 0.00 0.00 0.00 50 1000.9
20260509110209 48 310 5.0 12.0 0.00 0.00 0.00 48 1000.7
20260509110004 48 278 3.0 12.0 0.00 0.00 0.00 48 1000.7
20260509105004 49 249 5.0 18.0 0.00 0.00 0.00 49 1000.5
20260509104710 49 275 8.0 12.0 0.00 0.00 0.00 49 1000.5
20260509104004 49 252 5.0 12.0 0.00 0.00 0.00 51 1000.4
20260509103209 49 257 3.0 6.0 0.00 0.00 0.00 52 1000.3
20260509103004 49 291 6.0 13.0 0.00 0.00 0.00 51 1000.3
20260509102004 49 259 4.0 12.0 0.00 0.00 0.00 52 1000.4
20260509101710 49 256 7.0 9.0 0.00 0.00 0.00 51 1000.3
20260509101004 49 282 6.0 9.0 0.00 0.00 0.00 51 1000.2
20260509100208 49 257 5.0 9.0 0.00 0.00 0.00 50 1000.2
20260509100004 49 253 5.0 9.0 0.00 0.00 0.00 50 1000.2
20260509095004 49 274 5.0 12.0 0.00 0.00 0.00 53 1000.2
20260509094709 49 256 6.0 8.0 0.00 0.00 0.00 53 1000.3
20260509094004 49 254 6.0 13.0 0.00 0.00 0.00 52 1000.2
20260509093210 49 256 7.0 9.0 0.00 0.00 0.00 52 1000.2
20260509093004 49 263 7.0 12.0 0.00 0.00 0.00 52 1000.2
20260509092004 49 249 4.0 8.0 0.00 0.00 0.00 52 1000.3
20260509091709 49 268 3.0 5.0 0.00 0.00 0.00 52 1000.3
20260509091003 49 258 3.0 8.0 0.00 0.00 0.00 52 1000.4
20260509090210 49 274 5.0 8.0 0.00 0.00 0.00 52 1000.4
20260509090004 49 280 3.0 7.0 0.00 0.00 0.00 50 1000.3
20260509085004 49 280 4.0 9.0 0.00 0.00 0.00 50 1000.4
20260509084709 48 261 3.0 6.0 0.00 0.00 0.00 52 1000.3
20260509084004 48 272 4.0 9.0 0.00 0.00 0.00 54 1000.4
20260509083209 48 280 2.0 3.0 0.00 0.00 0.00 55 1000.4
20260509083004 48 265 1.0 3.0 0.00 0.00 0.00 54 1000.4
20260509082004 49 253 2.0 3.0 0.00 0.00 0.00 55 1000.2
20260509081709 49 252 2.0 3.0 0.00 0.00 0.00 53 1000.2
20260509081004 49 251 3.0 3.0 0.00 0.00 0.00 56 1000.3
20260509080208 49 259 2.0 3.0 0.00 0.00 0.00 53 1000.2
20260509075004 49 257 3.0 6.0 0.00 0.00 0.00 51 1000.3
20260509074709 49 265 2.0 3.0 0.00 0.00 0.00 51 1000.2
20260509074003 49 258 3.0 5.0 0.00 0.00 0.00 53 1000.3
20260509073210 49 262 3.0 3.0 0.00 0.00 0.00 52 1000.3
20260509073004 49 254 2.0 6.0 0.00 0.00 0.00 51 1000.3
20260509072003 49 264 2.0 3.0 0.00 0.00 0.00 50 1000.3
20260509071708 49 258 2.0 3.0 0.00 0.00 0.00 55 1000.3
20260509070209 50 267 2.0 3.0 0.00 0.00 0.00 53 1000.6
20260509065003 50 264 3.0 5.0 0.00 0.00 0.00 54 1000.7
20260509064709 50 270 3.0 5.0 0.00 0.00 0.00 53 1000.6
20260509063208 50 264 2.0 3.0 0.00 0.00 0.00 55 1001.0
20260509063004 50 263 2.0 7.0 0.00 0.00 0.00 49 1000.8
20260509062004 51 242 1.0 6.0 0.00 0.00 0.00 51 1000.7
20260509061710 51 244 1.0 2.0 0.00 0.00 0.00 49 1000.8
20260509061003 51 261 2.0 5.0 0.00 0.00 0.00 48 1000.9
20260509060208 51 271 1.0 2.0 0.00 0.00 0.00 47 1000.7
20260509060005 51 269 2.0 6.0 0.00 0.00 0.00 45 1000.5
20260509055004 52 287 1.0 5.0 0.00 0.00 0.00 45 1000.5
20260509054709 52 298 0.0 3.0 0.00 0.00 0.00 44 1000.6
20260509053209 52 291 2.0 8.0 0.00 0.00 0.00 44 1000.8
20260509053004 52 290 3.0 6.0 0.00 0.00 0.00 44 1000.8
20260509052004 53 238 2.0 7.0 0.00 0.00 0.00 44 1000.8
20260509051708 53 250 1.0 2.0 0.00 0.00 0.00 45 1000.9
20260509051004 53 295 1.0 10.0 0.00 0.00 0.00 43 1000.7
20260509050209 54 307 3.0 3.0 0.00 0.00 0.00 43 1000.9
20260509050004 54 306 3.0 12.0 0.00 0.00 0.00 45 1000.9
20260509045004 54 5 2.0 14.0 0.00 0.00 0.00 45 1000.7
20260509044709 54 274 3.0 12.0 0.00 0.00 0.00 45 1000.7
20260509044004 54 270 5.0 16.0 0.00 0.00 0.00 44 1000.8
20260509043210 54 293 3.0 8.0 0.00 0.00 0.00 45 1000.6
20260509043004 53 264 4.0 12.0 0.00 0.00 0.00 46 1000.5
20260509042004 51 289 5.0 14.0 0.00 0.00 0.00 54 1000.5
20260509041709 50 263 3.0 8.0 0.00 0.00 0.00 59 1000.5
20260509041004 51 257 2.0 3.0 0.00 0.00 0.00 63 1000.5
20260509040209 51 266 2.0 3.0 0.00 0.00 0.00 60 1000.4
20260509040004 51 269 2.0 5.0 0.00 0.00 0.00 60 1000.5